This demonstration page uses our WeatherBlox Daily Observations layout. Learn more.

Left ArrowRight Arrow

36.17497, -115.13722

Hourly Observations for July 20, 2020

Temp ( °F °C ) Dew Point ( °F °C ) Humidity (%) Winds ( mph kmh ) Pressure ( in mb ) Visibility ( mi km ) Precip ( " mm )
12:53 am 00:53 Clear 95 35 36 2.2 13 13 ENE 5 7 29.76 1008 10 16 0.00 0.00
1:53 am 01:53 Clear 92 33.3 39 3.9 16 16 WSW 5 7 29.75 1008 10 16 0.00 0.00
2:53 am 02:53 Clear 92 33.3 37 2.8 14 14 S 3 6 29.76 1008 10 16 0.00 0.00
3:53 am 03:53 Clear 91 32.8 37 2.8 15 15 E 3 6 29.75 1008 10 16 0.00 0.00
4:25 am 04:25 Clear with Nearby Thunderstorms 90 32.2 37 2.8 15 15 N 3 6 29.65 1004 10 16 0.00 0.00
4:53 am 04:53 Mostly Clear with Thunderstorms 90 32.2 36 2.2 15 15 E 5 7 29.79 1009 10 16 0.00 0.00
5:11 am 05:11 Mostly Cloudy with Light Rain 95 35 47 8.3 19 19 NW 13 20 29.68 1005 9 14 0.00 0.00
5:41 am 05:41 Cloudy with Nearby Thunderstorms 95 35 44 6.7 17 17 NNE 12 19 29.71 1006 10 16 0.00 0.00
5:51 am 05:51 Cloudy with Light Rain 95 35 43 6 16 16 NNE 15 24 29.71 1006 10 16 0.00 0.00
5:53 am 05:53 Cloudy with Light Rain 95 35 42 5.6 16 16 N 9 15 29.85 1011 10 16 0.00 0.00
6:53 am 06:53 Sunny 95 35 40 4.4 15 15 NNW 21 33 29.79 1009 10 16 0.00 0.00
7:53 am 07:53 Sunny 96 35.6 42 5.6 15 15 NW 13 20 29.84 1011 10 16 0.00 0.00
8:53 am 08:53 Sunny 98 36.7 41 5 14 14 NNW 9 15 29.84 1011 10 16 0.00 0.00
9:53 am 09:53 Sunny 102 38.9 41 5 12 12 N 7 11 29.83 1010 10 16 0.00 0.00
10:53 am 10:53 Sunny 103 39.4 42 5.6 12 12 SE 17 28 29.83 1010 10 16 0.00 0.00
11:53 am 11:53 Sunny 105 40.6 41 5 11 11 SSE 14 22 29.81 1010 10 16 0.00 0.00
12:53 pm 12:53 Sunny 106 41.1 39 3.9 10 10 SSE 13 20 29.79 1009 10 16 0.00 0.00
1:53 pm 13:53 Sunny 107 41.7 38 3.3 9 9 E 10 17 29.78 1008 10 16 0.00 0.00
2:53 pm 14:53 Sunny 107 41.7 38 3.3 9 9 VRB 5 7 29.75 1008 10 16 0.00 0.00
3:53 pm 15:53 Sunny 107 41.7 38 3.3 9 9 ENE 9 15 29.73 1007 10 16 0.00 0.00
4:53 pm 16:53 Sunny 103 39.4 42 5.6 12 12 NW 18 30 29.73 1007 10 16 0.00 0.00
5:53 pm 17:53 Sunny 103 39.4 39 3.9 11 11 VRB 3 6 29.72 1007 10 16 0.00 0.00
6:53 pm 18:53 Sunny 103 39.4 39 3.9 11 11 SSW 10 17 29.73 1007 10 16 0.00 0.00
7:53 pm 19:53 Sunny 101 38.3 40 4.4 12 12 Calm 29.72 1007 10 16 0.00 0.00
8:53 pm 20:53 Clear 98 36.7 40 4.4 13 13 Calm 29.74 1007 10 16 0.00 0.00
9:53 pm 21:53 Clear 96 35.6 43 6.1 16 16 WNW 3 6 29.74 1007 10 16 0.00 0.00
10:53 pm 22:53 Clear 94 34.4 44 6.7 18 18 W 5 7 29.74 1007 10 16 0.00 0.00
11:53 pm 23:53 Clear 90 32.2 45 7.2 21 21 NNW 6 9 29.75 1007 10 16 0.00 0.00

Powered by AerisWeather